Satellite: NOAA-11 Catalog number: 19531 Epoch time: 12306.46763176 Element set: 113 Inclination: 098.7274 deg RA of node: 028.6979 deg Eccentricity: 0.0010772 Arg of perigee: 188.4037 deg Mean anomaly: 171.6941 deg Mean motion: 14.14987198 rev/day Decay rate: -1.78e-06 rev/day^2 Epoch rev: 24392 Checksum: 332
Satellite: NOAA-12 Catalog number: 21263 Epoch time: 12306.54936028 Element set: 594 Inclination: 098.7184 deg RA of node: 327.5156 deg Eccentricity: 0.0014066 Arg of perigee: 158.5933 deg Mean anomaly: 201.5838 deg Mean motion: 14.25527356 rev/day Decay rate: 9.3e-07 rev/day^2 Epoch rev: 11612 Checksum: 302
Satellite: MET-3/5 Catalog number: 21655 Epoch time: 12305.81520666 Element set: 540 Inclination: 082.5582 deg RA of node: 055.6537 deg Eccentricity: 0.0012682 Arg of perigee: 345.2459 deg Mean anomaly: 014.8291 deg Mean motion: 13.17038524 rev/day Decay rate: 2.86e-06 rev/day^2 Epoch rev: 1987 Checksum: 303
Satellite: MET-2/21 Catalog number: 22782 Epoch time: 12306.90948372 Element set: 569 Inclination: 082.5444 deg RA of node: 283.2334 deg Eccentricity: 0.0023845 Arg of perigee: 124.1885 deg Mean anomaly: 236.1560 deg Mean motion: 13.83691212 rev/day Decay rate: 6.8e-07 rev/day^2 Epoch rev: 96821 Checksum: 313
Satellite: OKEAN-4 Catalog number: 23317 Epoch time: 12306.38854154 Element set: 42 Inclination: 082.5384 deg RA of node: 262.9042 deg Eccentricity: 0.0019168 Arg of perigee: 259.0484 deg Mean anomaly: 100.8576 deg Mean motion: 14.84065330 rev/day Decay rate: 1.154e-05 rev/day^2 Epoch rev: 97515 Checksum: 296
Satellite: NOAA-14 Catalog number: 23455 Epoch time: 12306.47621622 Element set: 76 Inclination: 098.8220 deg RA of node: 028.2014 deg Eccentricity: 0.0008776 Arg of perigee: 289.0493 deg Mean anomaly: 070.9728 deg Mean motion: 14.13879096 rev/day Decay rate: 8.4e-07 rev/day^2 Epoch rev: 92019 Checksum: 313
Satellite: NOAA-15 Catalog number: 25338 Epoch time: 12306.38711696 Element set: 462 Inclination: 098.7032 deg RA of node: 292.1015 deg Eccentricity: 0.0011582 Arg of perigee: 071.6412 deg Mean anomaly: 288.6036 deg Mean motion: 14.25139185 rev/day Decay rate: 4.0e-07 rev/day^2 Epoch rev: 75239 Checksum: 292
Satellite: RESURS Catalog number: 25394 Epoch time: 12305.89812593 Element set: 221 Inclination: 098.3340 deg RA of node: 287.0367 deg Eccentricity: 0.0001065 Arg of perigee: 155.2154 deg Mean anomaly: 204.9078 deg Mean motion: 14.24305735 rev/day Decay rate: 1.00e-06 rev/day^2 Epoch rev: 74386 Checksum: 281
Satellite: FENGYUN1 Catalog number: 25730 Epoch time: 12306.90764478 Element set: 730 Inclination: 098.8555 deg RA of node: 263.5841 deg Eccentricity: 0.0020982 Arg of perigee: 330.8355 deg Mean anomaly: 029.1631 deg Mean motion: 14.09815837 rev/day Decay rate: 8.90e-06 rev/day^2 Epoch rev: 69401 Checksum: 316
Satellite: OKEAN-0 Catalog number: 25860 Epoch time: 12305.95231869 Element set: 775 Inclination: 097.9547 deg RA of node: 265.9472 deg Eccentricity: 0.0001423 Arg of perigee: 104.6668 deg Mean anomaly: 255.4692 deg Mean motion: 14.74370401 rev/day Decay rate: 8.19e-06 rev/day^2 Epoch rev: 71472 Checksum: 324
Satellite: NOAA-16 Catalog number: 26536 Epoch time: 12306.29027342 Element set: 953 Inclination: 099.0778 deg RA of node: 350.4216 deg Eccentricity: 0.0011190 Arg of perigee: 060.0993 deg Mean anomaly: 300.1290 deg Mean motion: 14.12799008 rev/day Decay rate: -7.5e-07 rev/day^2 Epoch rev: 62439 Checksum: 291
Satellite: NOAA-17 Catalog number: 27453 Epoch time: 12306.27463480 Element set: 893 Inclination: 098.3260 deg RA of node: 326.3250 deg Eccentricity: 0.0012641 Arg of perigee: 112.7828 deg Mean anomaly: 247.4687 deg Mean motion: 14.24501843 rev/day Decay rate: 4.0e-07 rev/day^2 Epoch rev: 53827 Checksum: 297
Satellite: NOAA-18 Catalog number: 28654 Epoch time: 12306.35304188 Element set: 374 Inclination: 099.0660 deg RA of node: 265.7093 deg Eccentricity: 0.0014787 Arg of perigee: 126.9642 deg Mean anomaly: 233.2893 deg Mean motion: 14.11723869 rev/day Decay rate: 6.3e-07 rev/day^2 Epoch rev: 38391 Checksum: 327
Satellite: NOAA-19 Catalog number: 33591 Epoch time: 12306.39176761 Element set: 562 Inclination: 098.8768 deg RA of node: 244.5545 deg Eccentricity: 0.0014219 Arg of perigee: 356.8489 deg Mean anomaly: 003.2609 deg Mean motion: 14.11411999 rev/day Decay rate: 5.64e-06 rev/day^2 Epoch rev: 19236 Checksum: 337
/EX SB KEPS @ AMSAT $ORB12306.M Orbital Elements 12306.MISC
HR AMSAT ORBITAL ELEMENTS FOR MANNED AND MISCELLANEOUS SATELLITES FROM WA5QGD FORT WORTH,TX November 1, 2012 Send SUBSCRIBE KEPS/UNSUBSCRIBE KEPS to majordomo@amsat.org only BID: ORB12306.M TO ALL RADIO AMATEURS BT
Satellite: HUBBLE Catalog number: 20580 Epoch time: 12306.20386483 Element set: 99 Inclination: 028.4708 deg RA of node: 326.6237 deg Eccentricity: 0.0003321 Arg of perigee: 086.5276 deg Mean anomaly: 273.5640 deg Mean motion: 15.02980314 rev/day Decay rate: 1.981e-05 rev/day^2 Epoch rev: 3535 Checksum: 283
Satellite: ISS Catalog number: 25544 Epoch time: 12306.94219655 Element set: 568 Inclination: 051.6464 deg RA of node: 157.1172 deg Eccentricity: 0.0016378 Arg of perigee: 235.7342 deg Mean anomaly: 265.5394 deg Mean motion: 15.51143599 rev/day Decay rate: 4.3520e-04 rev/day^2 Epoch rev: 79941 Checksum: 321
Satellite: CO-58 Catalog number: 28895 Epoch time: 12306.08371842 Element set: 316 Inclination: 097.8929 deg RA of node: 166.1994 deg Eccentricity: 0.0018732 Arg of perigee: 080.3535 deg Mean anomaly: 279.9785 deg Mean motion: 14.60820784 rev/day Decay rate: 6.59e-06 rev/day^2 Epoch rev: 37364 Checksum: 365
Satellite: FALCON Catalog number: 30776 Epoch time: 12306.89518225 Element set: 473 Inclination: 035.4368 deg RA of node: 155.0862 deg Eccentricity: 0.0001536 Arg of perigee: 230.6535 deg Mean anomaly: 129.4048 deg Mean motion: 15.08709937 rev/day Decay rate: 4.763e-05 rev/day^2 Epoch rev: 31105 Checksum: 299
Satellite: MAST Catalog number: 31126 Epoch time: 12306.42134475 Element set: 595 Inclination: 097.8746 deg RA of node: 309.5113 deg Eccentricity: 0.0094576 Arg of perigee: 043.2557 deg Mean anomaly: 317.6040 deg Mean motion: 14.54317227 rev/day Decay rate: 8.38e-06 rev/day^2 Epoch rev: 29421 Checksum: 297
Satellite: CAPE1 Catalog number: 31130 Epoch time: 12306.01936989 Element set: 606 Inclination: 097.8850 deg RA of node: 305.4571 deg Eccentricity: 0.0102006 Arg of perigee: 058.6537 deg Mean anomaly: 302.4558 deg Mean motion: 14.53142356 rev/day Decay rate: 6.15e-06 rev/day^2 Epoch rev: 29364 Checksum: 289
Satellite: COMPASS Catalog number: 32787 Epoch time: 12306.12391204 Element set: 452 Inclination: 097.7848 deg RA of node: 004.3524 deg Eccentricity: 0.0014725 Arg of perigee: 336.3508 deg Mean anomaly: 023.7042 deg Mean motion: 14.84574317 rev/day Decay rate: 2.061e-05 rev/day^2 Epoch rev: 24412 Checksum: 272
Satellite: AAUSAT2 Catalog number: 32788 Epoch time: 12305.85976127 Element set: 442 Inclination: 097.7847 deg RA of node: 004.5579 deg Eccentricity: 0.0013379 Arg of perigee: 338.3106 deg Mean anomaly: 021.7501 deg Mean motion: 14.84945488 rev/day Decay rate: 2.366e-05 rev/day^2 Epoch rev: 24411 Checksum: 323
Satellite: DO-64 Catalog number: 32789 Epoch time: 12306.15780300 Element set: 460 Inclination: 097.7985 deg RA of node: 007.4348 deg Eccentricity: 0.0013928 Arg of perigee: 331.7117 deg Mean anomaly: 028.3270 deg Mean motion: 14.86846147 rev/day Decay rate: 4.037e-05 rev/day^2 Epoch rev: 24422 Checksum: 310
Satellite: CO-66 Catalog number: 32791 Epoch time: 12306.17153016 Element set: 441 Inclination: 097.7837 deg RA of node: 004.0211 deg Eccentricity: 0.0014606 Arg of perigee: 337.0237 deg Mean anomaly: 023.0310 deg Mean motion: 14.83885144 rev/day Decay rate: 1.182e-05 rev/day^2 Epoch rev: 24405 Checksum: 261
Satellite: RS-30 Catalog number: 32953 Epoch time: 12306.84388988 Element set: 285 Inclination: 082.5048 deg RA of node: 209.5345 deg Eccentricity: 0.0019895 Arg of perigee: 010.6879 deg Mean anomaly: 349.4617 deg Mean motion: 12.43029159 rev/day Decay rate: 1.0e-07 rev/day^2 Epoch rev: 20166 Checksum: 323
Satellite: PHARMSAT Catalog number: 35002 Epoch time: 12226.86484473 Element set: 78 Inclination: 040.4341 deg RA of node: 050.6671 deg Eccentricity: 0.0012079 Arg of perigee: 300.9773 deg Mean anomaly: 059.0492 deg Mean motion: 16.39309245 rev/day Decay rate: 7.728342e-02 rev/day^2 Epoch rev: 18355 Checksum: 302
Satellite: METEOR-M Catalog number: 35865 Epoch time: 12306.72218611 Element set: 923 Inclination: 098.6379 deg RA of node: 358.3462 deg Eccentricity: 0.0003078 Arg of perigee: 029.0306 deg Mean anomaly: 331.1032 deg Mean motion: 14.21873213 rev/day Decay rate: 1.1e-07 rev/day^2 Epoch rev: 16214 Checksum: 264
Satellite: RS-38 Catalog number: 35869 Epoch time: 12306.72246881 Element set: 904 Inclination: 098.6329 deg RA of node: 358.3176 deg Eccentricity: 0.0005234 Arg of perigee: 022.8815 deg Mean anomaly: 337.2592 deg Mean motion: 14.22096228 rev/day Decay rate: 7.1e-07 rev/day^2 Epoch rev: 16216 Checksum: 317
Satellite: JUGNU Catalog number: 37839 Epoch time: 12305.90703678 Element set: 259 Inclination: 019.9581 deg RA of node: 249.9545 deg Eccentricity: 0.0018691 Arg of perigee: 288.8986 deg Mean anomaly: 070.9385 deg Mean motion: 14.12098496 rev/day Decay rate: 6.20e-06 rev/day^2 Epoch rev: 5459 Checksum: 358
Satellite: SRMSAT Catalog number: 37841 Epoch time: 12305.22797954 Element set: 261 Inclination: 019.9684 deg RA of node: 261.6117 deg Eccentricity: 0.0012413 Arg of perigee: 243.9209 deg Mean anomaly: 115.9939 deg Mean motion: 14.10175191 rev/day Decay rate: 2.64e-06 rev/day^2 Epoch rev: 5441 Checksum: 291
